Find Starlink 37543

NORAD ID: 68911 Int'l Des: 2026-097 Owner: SPXS Country: US Constellation: starlink operational
LEOCIRCULARRETROGRADE

当前视图

正在加载3D地球...

About Starlink 37543

Starlink 37543 (NORAD 68911) is a starlink constellation satellite (v2 mini) launched Apr 30, 2026 by SPXS of US. It operates in LEO, CIRCULAR, RETROGRADE orbit with a mass of 575.00 kg.

关于 Starlink 37543

正在加载描述...

即将过境

Passes for default location (London). Set your location on the main map for personalized predictions.

高度历史

Loading altitude history...

两行轨道根数

1 68911U 26097S 26170.51853650 .00025048 00000-0 77491-3 0 9998
2 68911 97.2862 6.0009 0002909 87.8291 272.3284 15.33470993 7842
Epoch: Jun 19, 2026 • Age: 12 hours

当前状态

高度 491.2 km
速度 7.62 km/s
星下点 -62.38°S, 102.77°W
发射日期 Apr 30, 2026
运行时间 0.1 years
类型 internet

技术详情

分类 Payload
质量 575.00 kg
干质量 530.00 kg
总质量 575.00 kg
长度 0.30 m
直径 4.10 m
跨度 29.00 m
形状 Box + pan
制造商 SPXS
平台类型 Starlink V2MO
阶段状态 In Orbit
所有者/国家 SPXS/US

Most Searched